[[{"header":{"parameterUnit":"m.s-1","parameterCategory":1,"la1":30.2991,"la2":30.254,"lo1":-89.0895,"lo2":-89.0444,"dy":0.0017,"dx":0.0017,"nx":28,"ny":28,"refTime":"2023-03-18T21:00:00:Z","depth":0,"parameterNumber":2,"parameterNumberName":"U-component_of_WINDS"},"data":[0,0,0,0,0,0,0,0,0,0,0,0,0,0,0,0,0,0,0,0,0,0,0,0,0,0,0,0,0,0,0,0,0,0,0,0,0,0,0,0,0,0,0,0,0,0,0,0,0,0,0,0,0,0,0,0,0,0,-1.2396,-1.2397,0,-1.2535,-1.2537,-1.2538,-1.2535,-1.2533,-1.2531,-1.2529,-1.2671,-1.2677,-1.2682,0,0,0,0,0,0,0,0,0,0,0,0,0,-1.2125,-1.213,-1.2396,-1.2397,-1.2399,-1.2535,-1.2537,-1.2539,-1.2535,-1.2533,-1.2531,-1.2529,-1.267,-1.2676,-1.2683,0,0,0,0,0,0,0,0,0,0,0,0,0,-1.2251,-1.2132,-1.2395,-1.2414,-1.2417,-1.2534,-1.2537,-1.2539,-1.2536,-1.2533,-1.253,-1.2528,-1.2667,-1.2675,-1.2684,-1.2792,0,0,-1.2709,-1.2713,0,0,0,0,0,0,0,0,-1.2244,-1.2261,-1.2409,-1.2413,-1.2416,-1.2515,-1.2493,-1.2624,-1.2537,-1.2491,-1.2529,-1.2526,-1.2622,-1.2633,-1.2666,-1.2798,-1.2804,-1.271,-1.2715,-1.2718,-1.2721,0,0,0,0,0,0,0,-1.2235,-1.2255,-1.2451,-1.2412,-1.2416,-1.2415,-1.243,-1.2518,-1.257,-1.2494,-1.2495,-1.2511,-1.2623,-1.2658,-1.2669,-1.2806,-1.271,-1.2717,-1.2722,-1.2725,-1.3034,-1.3037,0,0,0,0,0,0,-1.2223,-1.2248,-1.2446,-1.2455,-1.2322,-1.2422,-1.2438,-1.2486,-1.2569,-1.2579,-1.2513,-1.251,-1.2645,-1.2659,-1.2674,-1.2807,-1.2718,-1.2726,-1.2731,-1.3031,-1.3035,-1.3038,0,0,0,0,0,0,-1.2217,-1.2241,-1.2441,-1.2352,-1.2377,-1.243,-1.2483,-1.249,-1.2525,-1.2584,-1.2593,-1.254,-1.2643,-1.2662,-1.2762,-1.2811,-1.273,-1.2737,-1.3027,-1.3032,-1.3037,-1.3072,0,0,0,0,0,0,-1.2209,-1.2239,-1.2281,-1.2353,-1.2382,-1.2528,-1.2486,-1.2495,-1.254,-1.2537,-1.2611,-1.262,-1.2643,-1.275,-1.2771,-1.2821,-1.2744,-1.3023,-1.3029,-1.3035,-1.3067,-1.3077,-1.3087,0,0,0,0,0,-1.22,-1.2285,-1.2283,-1.2307,-1.2436,-1.253,-1.2547,-1.2571,-1.2544,-1.2586,-1.2623,-1.2618,-1.2802,-1.276,-1.2784,-1.2837,-1.302,-1.3028,-1.3035,-1.3062,-1.3075,-1.3086,0,0,0,0,0,0,-1.2218,-1.2295,-1.2293,-1.2405,-1.2461,-1.253,-1.2585,-1.2584,-1.265,-1.2645,-1.2671,-1.2688,-1.2788,-1.2822,-1.2775,-1.2946,-1.2908,-1.292,-1.2921,-1.2934,-1.2943,-1.2934,-1.2751,0,0,0,0,0,-1.2235,-1.2306,-1.2369,-1.2461,-1.2489,-1.2532,-1.2574,-1.2588,-1.2647,-1.2671,-1.2716,-1.2773,-1.2844,-1.289,-1.2959,-1.3071,-1.3087,-1.3119,-1.3129,-1.3137,-1.3148,-1.3209,-1.3225,-1.3062,-1.3062,-1.3062,0,0,-1.227,-1.2321,-1.2364,-1.2466,-1.2511,-1.2584,-1.2552,-1.263,-1.2684,-1.2683,-1.2781,-1.2815,-1.2881,-1.2987,-1.3036,-1.3019,-1.3195,-1.3146,-1.3152,-1.3159,-1.3218,-1.3234,-1.3247,-1.3067,-1.3066,-1.3065,0,0,-1.2373,-1.2418,-1.25,-1.2546,-1.2615,-1.2643,-1.2662,-1.2731,-1.2754,-1.2852,-1.2852,-1.2916,-1.3038,-1.3085,-1.3124,-1.3243,-1.324,-1.3264,-1.3317,-1.3377,-1.339,-1.3401,-1.3444,-1.3459,-1.3274,-1.3274,-1.3274,0,-1.2409,-1.2519,-1.2542,-1.2621,-1.2666,-1.2667,-1.275,-1.2793,-1.288,-1.2911,-1.2889,-1.3042,-1.3086,-1.3204,-1.3232,-1.3264,-1.3287,-1.3257,-1.3386,-1.3398,-1.3409,-1.345,-1.3466,-1.3277,-1.3277,-1.3276,-1.3276,0,-1.256,-1.2636,-1.2694,-1.2779,-1.2829,-1.291,-1.2944,-1.2992,-1.3001,-1.303,-1.313,-1.3183,-1.3262,-1.329,-1.33,-1.341,-1.3396,-1.338,-1.3342,-1.3426,-1.3466,-1.3482,-1.3281,-1.328,-1.3279,-1.3278,0,0,-1.268,-1.2776,-1.2797,-1.2835,-1.2911,-1.297,-1.3049,-1.3127,-1.3168,-1.3227,-1.3295,-1.3397,-1.3382,-1.3427,-1.3441,-1.3494,-1.3585,-1.3471,-1.3473,-1.3491,-1.371,-1.3723,-1.3741,-1.3582,-1.3586,-1.3588,-1.3704,0,-1.2792,-1.2935,-1.2957,-1.3083,-1.3153,-1.3154,-1.3224,-1.3277,-1.3306,-1.337,-1.3401,-1.3474,-1.3448,-1.3475,-1.3527,-1.3563,-1.3629,-1.3554,-1.3646,-1.3649,-1.3632,-1.3761,-1.3776,-1.3883,-1.372,-1.3723,-1.3724,0,-1.2942,-1.3006,-1.3139,-1.3204,-1.3234,-1.3297,-1.3369,-1.343,-1.349,-1.3507,-1.3557,-1.3564,-1.3646,-1.3603,-1.3716,-1.3665,-1.3703,-1.3726,-1.3731,-1.3742,-1.3693,-1.3777,-1.3918,-1.3935,-1.3749,-1.3747,-1.3745,0,-1.3018,-1.3137,-1.3232,-1.3264,-1.3343,-1.3386,-1.3421,-1.3478,-1.3523,-1.3586,-1.3615,-1.3686,-1.3726,-1.378,-1.3806,-1.3772,-1.3918,-1.3877,-1.3935,-1.3934,-1.3967,-1.3965,-1.4118,-1.3989,-1.3989,-1.3988,-1.3988,0,-1.3142,-1.3223,-1.3267,-1.3326,-1.3416,-1.344,-1.3529,-1.3562,-1.3613,-1.3677,-1.3681,-1.3742,-1.3772,-1.3836,-1.3856,-1.3947,-1.3965,-1.3981,-1.3986,-1.3982,-1.398,-1.4009,-1.4003,-1.3993,-1.3992,-1.3991,-1.399,0,-1.3243,-1.3276,-1.3379,-1.3445,-1.3463,-1.3527,-1.3582,-1.3639,-1.3666,-1.3748,-1.3768,-1.3812,-1.3888,-1.3919,-1.4011,-1.4025,-1.413,-1.4128,-1.411,-1.4112,-1.4169,-1.4164,-1.4347,-1.4372,-1.4225,-1.4226,-1.4228,0,-1.3321,-1.3384,-1.3455,-1.3499,-1.3535,-1.3605,-1.3651,-1.3676,-1.3723,-1.3796,-1.3843,-1.3919,-1.3981,-1.4102,-1.4142,-1.4213,-1.4214,-1.4273,-1.4224,-1.4218,-1.4216,-1.4213,-1.4219,-1.4282,-1.4284,-1.4285,-1.4286,0,-1.3456,-1.3469,-1.3535,-1.3607,-1.3661,-1.3719,-1.3775,-1.381,-1.3843,-1.3896,-1.3974,-1.4022,-1.4117,-1.4192,-1.4265,-1.4299,-1.4299,-1.43,-1.4318,-1.4316,-1.4303,-1.4312,-1.4136,-1.4297,-1.4296,-1.4295,-1.4294,-1.4294,-1.3549,-1.3605,-1.3664,-1.3737,-1.3782,-1.3834,-1.389,-1.3925,-1.399,-1.407,-1.408,-1.4163,-1.422,-1.4318,-1.4355,-1.442,-1.4405,-1.443,-1.4437,-1.4443,-1.4447,-1.4291,-1.4433,-1.4433,-1.4433,-1.4433,-1.4432,0,-1.3685,-1.3723,-1.379,-1.3868,-1.3926,-1.3919,-1.398,-1.4029,-1.4103,-1.4156,-1.4217,-1.4306,-1.4379,-1.4423,-1.4496,-1.4539,-1.4541,-1.4558,-1.4556,-1.4564,-1.4456,-1.4435,-1.4556,-1.4556,-1.4555,-1.4555,-1.4555,-1.4555,-1.3763,-1.3857,-1.3877,-1.3992,-1.4029,-1.4112,-1.4147,-1.4195,-1.4238,-1.4337,-1.4398,-1.4426,-1.4476,-1.4552,-1.4618,-1.4629,-1.4656,-1.4675,-1.4685,-1.4584,-1.4571,-1.4559,-1.4539,-1.468,-1.468,-1.4787,-1.4788,-1.4789]},{"header":{"parameterUnit":"m.s-1","parameterCategory":1,"la1":30.2991,"la2":30.254,"lo1":-89.0895,"lo2":-89.0444,"dy":0.0017,"dx":0.0017,"nx":28,"ny":28,"refTime":"2023-03-18T21:00:00:Z","depth":0,"parameterNumber":3,"parameterNumberName":"V-component_of_WINDS"},"data":[0,0,0,0,0,0,0,0,0,0,0,0,0,0,0,0,0,0,0,0,0,0,0,0,0,0,0,0,0,0,0,0,0,0,0,0,0,0,0,0,0,0,0,0,0,0,0,0,0,0,0,0,0,0,0,0,0,0,-7.9245,-7.9247,0,-7.941,-7.9412,-7.9414,-7.9331,-7.9327,-7.9323,-7.9319,-7.9482,-7.949,-7.9499,0,0,0,0,0,0,0,0,0,0,0,0,0,-7.8854,-7.8862,-7.9245,-7.9247,-7.9249,-7.941,-7.9412,-7.9414,-7.9332,-7.9327,-7.9322,-7.9317,-7.948,-7.9489,-7.9499,0,0,0,0,0,0,0,0,0,0,0,0,0,-7.9022,-7.8864,-7.9245,-7.9228,-7.9228,-7.9409,-7.9412,-7.9415,-7.9333,-7.9327,-7.932,-7.9314,-7.9476,-7.9488,-7.9501,-7.9707,0,0,-7.9539,-7.9545,0,0,0,0,0,0,0,0,-7.9012,-7.9036,-7.9228,-7.9229,-7.923,-7.9344,-7.9334,-7.9513,-7.9335,-7.9293,-7.9318,-7.9311,-7.9441,-7.9456,-7.9501,-7.9715,-7.9722,-7.954,-7.9548,-7.9553,-7.9557,0,0,0,0,0,0,0,-7.9001,-7.9029,-7.931,-7.9231,-7.9232,-7.921,-7.9227,-7.9368,-7.9401,-7.9296,-7.9291,-7.9311,-7.944,-7.9489,-7.9504,-7.9724,-7.954,-7.9551,-7.9559,-7.9564,-8.0114,-8.0121,0,0,0,0,0,0,-7.8991,-7.902,-7.9305,-7.9315,-7.9103,-7.9222,-7.9241,-7.9314,-7.9399,-7.9406,-7.9317,-7.9307,-7.9471,-7.949,-7.951,-7.9757,-7.9553,-7.9565,-7.9572,-8.0107,-8.0116,-8.0124,0,0,0,0,0,0,-7.8983,-7.9017,-7.9298,-7.9166,-7.92,-7.9236,-7.9318,-7.932,-7.9369,-7.9415,-7.942,-7.9361,-7.9467,-7.9492,-7.9659,-7.9761,-7.9571,-7.9582,-8.0099,-8.011,-8.012,-8.0253,0,0,0,0,0,0,-7.8972,-7.9015,-7.9095,-7.9169,-7.9208,-7.9447,-7.9324,-7.9328,-7.9392,-7.938,-7.9458,-7.9464,-7.9463,-7.9641,-7.9671,-7.9775,-7.9592,-8.009,-8.0104,-8.0116,-8.0239,-8.0266,-8.029,0,0,0,0,0,-7.8958,-7.9125,-7.9099,-7.9134,-7.9309,-7.9453,-7.9475,-7.9472,-7.94,-7.948,-7.9509,-7.9462,-7.9745,-7.9658,-7.9692,-7.9801,-8.0083,-8.01,-8.0115,-8.0228,-8.0261,-8.0289,0,0,0,0,0,0,-7.9061,-7.9134,-7.9107,-7.9303,-7.9373,-7.9439,-7.954,-7.9508,-7.9598,-7.9584,-7.9574,-7.9592,-7.9766,-7.98,-7.9702,-8.0005,-7.9903,-7.9926,-7.9977,-8.0009,-8.0033,-8.0022,-7.9602,0,0,0,0,0,-7.9106,-7.9219,-7.9276,-7.9443,-7.948,-7.9504,-7.9567,-7.9559,-7.963,-7.9659,-7.97,-7.977,-7.9874,-7.9943,-8.0041,-8.0243,-8.0258,-8.0335,-8.036,-8.038,-8.0401,-8.0509,-8.0544,-8.0176,-8.0176,-8.0176,0,0,-7.9201,-7.9255,-7.9327,-7.9465,-7.9519,-7.9634,-7.953,-7.9656,-7.9741,-7.9677,-7.9838,-7.9871,-7.9947,-8.0133,-8.0216,-8.0166,-8.0506,-8.0401,-8.0417,-8.0426,-8.0529,-8.0564,-8.0595,-8.0187,-8.0185,-8.0183,0,0,-7.9434,-7.9486,-7.9631,-7.9687,-7.9769,-7.9784,-7.9819,-7.9891,-7.991,-8.0072,-8.0026,-8.0125,-8.0306,-8.0362,-8.0415,-8.0668,-8.0627,-8.07,-8.0832,-8.0938,-8.0967,-8.0992,-8.1082,-8.1114,-8.072,-8.072,-8.072,0,-7.9541,-7.9715,-7.9709,-7.984,-7.9902,-7.985,-7.9996,-8.0049,-8.0159,-8.0202,-8.0145,-8.037,-8.0418,-8.0615,-8.0677,-8.0721,-8.076,-8.0691,-8.0963,-8.0989,-8.1013,-8.1098,-8.1132,-8.0729,-8.0728,-8.0727,-8.0726,0,-7.9843,-7.9964,-8.0071,-8.018,-8.0253,-8.0391,-8.0404,-8.0479,-8.0464,-8.0484,-8.0648,-8.0704,-8.0813,-8.0858,-8.0844,-8.1054,-8.1021,-8.0964,-8.0861,-8.1056,-8.1136,-8.1169,-8.074,-8.0737,-8.0735,-8.0733,0,0,-8.0146,-8.0249,-8.0289,-8.0337,-8.0424,-8.0516,-8.065,-8.0758,-8.0822,-8.0899,-8.1011,-8.1164,-8.1112,-8.1171,-8.1163,-8.1256,-8.1452,-8.1187,-8.1189,-8.1234,-8.1685,-8.1728,-8.1766,-8.1425,-8.1431,-8.1436,-8.1679,0,-8.0384,-8.0621,-8.0619,-8.0838,-8.0949,-8.0901,-8.1018,-8.1082,-8.1105,-8.12,-8.1223,-8.1333,-8.1256,-8.1291,-8.1381,-8.1409,-8.1542,-8.1392,-8.1527,-8.1532,-8.1511,-8.1808,-8.1854,-8.208,-8.171,-8.1715,-8.1719,0,-8.0694,-8.0783,-8.1013,-8.1083,-8.1129,-8.1235,-8.1333,-8.1426,-8.1497,-8.1507,-8.1573,-8.155,-8.1684,-8.1578,-8.1762,-8.1659,-8.1714,-8.1736,-8.1745,-8.1758,-8.1638,-8.1829,-8.2152,-8.2186,-8.1769,-8.1765,-8.1761,0,-8.0892,-8.1069,-8.1229,-8.1272,-8.1357,-8.1432,-8.1471,-8.1536,-8.1601,-8.1686,-8.1728,-8.1827,-8.1881,-8.1957,-8.1961,-8.1883,-8.2147,-8.204,-8.2157,-8.2157,-8.2215,-8.2212,-8.2552,-8.2251,-8.225,-8.2249,-8.2249,0,-8.1159,-8.1302,-8.1319,-8.1418,-8.1576,-8.1571,-8.1727,-8.1758,-8.1817,-8.1919,-8.1883,-8.1979,-8.1978,-8.2076,-8.2079,-8.2231,-8.2255,-8.2265,-8.2265,-8.2269,-8.2268,-8.2306,-8.229,-8.2258,-8.2257,-8.2255,-8.2253,0,-8.1407,-8.1425,-8.1596,-8.1663,-8.1683,-8.1797,-8.1853,-8.1946,-8.1964,-8.2094,-8.2125,-8.2153,-8.2266,-8.2277,-8.2408,-8.241,-8.2593,-8.2575,-8.257,-8.2567,-8.2684,-8.2673,-8.306,-8.3111,-8.2776,-8.2779,-8.2782,0,-8.1576,-8.1685,-8.1764,-8.1831,-8.1874,-8.1982,-8.2048,-8.2047,-8.2117,-8.2207,-8.2289,-8.2399,-8.2487,-8.2669,-8.27,-8.28,-8.2784,-8.2913,-8.2799,-8.28,-8.2786,-8.278,-8.279,-8.2935,-8.2939,-8.2942,-8.2945,0,-8.1875,-8.1878,-8.1976,-8.2077,-8.2158,-8.2237,-8.231,-8.2367,-8.2374,-8.2455,-8.2571,-8.2639,-8.2773,-8.2882,-8.298,-8.3017,-8.2983,-8.298,-8.3012,-8.3019,-8.3011,-8.3017,-8.2631,-8.2971,-8.2969,-8.2967,-8.2965,-8.2964,-8.2089,-8.2183,-8.2254,-8.2363,-8.2419,-8.2489,-8.258,-8.261,-8.2707,-8.2818,-8.281,-8.2938,-8.3005,-8.3133,-8.3178,-8.3277,-8.3233,-8.328,-8.3292,-8.3304,-8.3316,-8.2995,-8.3294,-8.3293,-8.3293,-8.3292,-8.3291,0,-8.2386,-8.2429,-8.253,-8.2635,-8.2721,-8.2682,-8.2761,-8.2835,-8.2949,-8.3015,-8.3103,-8.3236,-8.3341,-8.338,-8.3483,-8.3554,-8.3541,-8.3581,-8.3576,-8.3585,-8.3349,-8.3311,-8.359,-8.359,-8.359,-8.359,-8.359,-8.359,-8.2551,-8.2708,-8.272,-8.2904,-8.2944,-8.3071,-8.312,-8.3183,-8.3236,-8.3387,-8.3475,-8.35,-8.3555,-8.3661,-8.3756,-8.3764,-8.3803,-8.3851,-8.3853,-8.3632,-8.3602,-8.3573,-8.3537,-8.386,-8.386,-8.4081,-8.4083,-8.4084]}]]